�������l�o���
Date,Time,MP-1(��Sv/h),MP-2(��Sv/h),MP-3(��Sv/h),MP-4(��Sv/h),MP-5(��Sv/h),MP-6(��Sv/h),MP-7(��Sv/h),MP-8(��Sv/h),����,����(m/s),���J
2021/01/09,00:00,0.657,0.941,0.601,1.182,0.833,0.375,0.670,0.632,�k��,5.6,��
2021/01/09,00:10,0.659,0.940,0.601,1.183,0.830,0.375,0.669,0.632,�k��,4.9,��
2021/01/09,00:20,0.659,0.939,0.602,1.183,0.831,0.374,0.669,0.632,�k��,5.2,��
2021/01/09,00:30,0.658,0.941,0.601,1.183,0.830,0.375,0.668,0.633,�k��,4.7,��
2021/01/09,00:40,0.657,0.939,0.601,1.181,0.830,0.375,0.669,0.632,�k��,5.1,��
2021/01/09,00:50,0.658,0.939,0.600,1.181,0.831,0.374,0.668,0.632,�k��,4.2,��
2021/01/09,01:00,0.659,0.941,0.601,1.183,0.830,0.374,0.668,0.633,�k��,4.7,��
2021/01/09,01:10,0.659,0.940,0.601,1.183,0.830,0.376,0.668,0.632,�k��,4.9,��
2021/01/09,01:20,0.658,0.939,0.600,1.182,0.826,0.375,0.666,0.632,�k��,5.5,��
2021/01/09,01:30,0.659,0.941,0.600,1.182,0.829,0.374,0.669,0.632,�k��,5.4,��
2021/01/09,01:40,0.657,0.940,0.600,1.183,0.829,0.375,0.667,0.632,�k��,5.3,��
2021/01/09,01:50,0.659,0.940,0.600,1.183,0.829,0.375,0.667,0.633,�k��,4.7,��
2021/01/09,02:00,0.658,0.938,0.601,1.183,0.831,0.374,0.668,0.633,�k��,5.0,��
2021/01/09,02:10,0.658,0.939,0.599,1.179,0.828,0.375,0.667,0.631,�k��,4.8,��
2021/01/09,02:20,0.658,0.942,0.600,1.182,0.828,0.375,0.669,0.632,�k��,4.7,��
2021/01/09,02:30,0.658,0.940,0.599,1.180,0.829,0.376,0.668,0.632,���k��,4.7,��
2021/01/09,02:40,0.659,0.940,0.601,1.178,0.829,0.375,0.667,0.632,���k��,5.8,��
2021/01/09,02:50,0.657,0.937,0.601,1.180,0.829,0.374,0.667,0.632,���k��,5.1,��
2021/01/09,03:00,0.657,0.939,0.600,1.182,0.829,0.375,0.668,0.633,�k��,4.0,��
2021/01/09,03:10,0.659,0.939,0.600,1.184,0.830,0.375,0.669,0.631,���k��,4.2,��
2021/01/09,03:20,0.658,0.938,0.601,1.184,0.830,0.375,0.668,0.632,���k��,4.1,��
2021/01/09,03:30,0.659,0.938,0.600,1.180,0.829,0.374,0.669,0.633,���k��,5.4,��
2021/01/09,03:40,0.658,0.936,0.600,1.182,0.831,0.375,0.669,0.632,���k��,4.5,��
2021/01/09,03:50,0.659,0.938,0.599,1.183,0.828,0.374,0.668,0.630,���k��,3.5,��
2021/01/09,04:00,0.658,0.939,0.601,1.184,0.829,0.376,0.669,0.632,���k��,3.5,��
2021/01/09,04:10,0.658,0.938,0.600,1.181,0.829,0.375,0.668,0.631,���k��,3.6,��
2021/01/09,04:20,0.657,0.938,0.599,1.183,0.828,0.374,0.666,0.633,���k��,4.1,��
2021/01/09,04:30,0.656,0.938,0.600,1.181,0.827,0.375,0.668,0.631,���k��,4.7,��
2021/01/09,04:40,0.659,0.938,0.601,1.181,0.828,0.375,0.668,0.632,�k��,5.9,��
2021/01/09,04:50,0.658,0.940,0.600,1.182,0.829,0.375,0.668,0.631,�k��,7.0,��
2021/01/09,05:00,0.658,0.936,0.600,1.180,0.829,0.374,0.667,0.632,�k��,6.6,��
2021/01/09,05:10,0.659,0.938,0.601,1.181,0.830,0.374,0.669,0.631,���k��,5.9,��
2021/01/09,05:20,0.658,0.938,0.601,1.181,0.830,0.374,0.668,0.632,�k��,5.6,��
2021/01/09,05:30,0.656,0.936,0.600,1.181,0.829,0.373,0.668,0.632,�k��,6.4,��
2021/01/09,05:40,0.659,0.937,0.601,1.185,0.830,0.375,0.668,0.632,�k�k��,6.2,��
2021/01/09,05:50,0.656,0.935,0.600,1.181,0.828,0.376,0.668,0.632,�k�k��,6.5,��
2021/01/09,06:00,0.659,0.935,0.599,1.182,0.829,0.376,0.666,0.631,�k�k��,7.6,��
2021/01/09,06:10,0.658,0.935,0.599,1.181,0.831,0.376,0.668,0.632,�k�k��,5.3,��
2021/01/09,06:20,0.656,0.934,0.600,1.181,0.829,0.374,0.667,0.632,�k�k��,5.3,��
2021/01/09,06:30,0.656,0.935,0.600,1.183,0.830,0.375,0.668,0.631,�k�k��,5.6,��
2021/01/09,06:40,0.657,0.936,0.601,1.182,0.828,0.373,0.667,0.632,�k�k��,6.5,��
2021/01/09,06:50,0.657,0.935,0.598,1.181,0.828,0.376,0.667,0.633,�k�k��,7.5,��
2021/01/09,07:00,0.656,0.936,0.602,1.182,0.827,0.375,0.669,0.633,�k�k��,7.6,��
2021/01/09,07:10,0.657,0.935,0.600,1.183,0.828,0.375,0.668,0.631,�k�k��,7.6,��
2021/01/09,07:20,0.658,0.936,0.600,1.182,0.828,0.375,0.669,0.632,�k�k��,7.6,��
2021/01/09,07:30,0.659,0.940,0.600,1.181,0.827,0.376,0.667,0.631,�k�k��,7.8,��
2021/01/09,07:40,0.658,0.937,0.601,1.185,0.828,0.373,0.668,0.633,�k�k��,8.1,��
2021/01/09,07:50,0.659,0.938,0.598,1.183,0.829,0.376,0.666,0.633,�k�k��,7.4,��
2021/01/09,08:00,0.660,0.938,0.600,1.184,0.828,0.374,0.668,0.631,�k�k��,7.5,��
2021/01/09,08:10,0.659,0.939,0.601,1.183,0.828,0.374,0.669,0.632,�k�k��,7.0,��
2021/01/09,08:20,0.659,0.937,0.601,1.184,0.828,0.376,0.668,0.632,�k�k��,6.3,��
2021/01/09,08:30,0.659,0.937,0.602,1.183,0.831,0.375,0.667,0.633,�k�k��,6.1,��
2021/01/09,08:40,0.659,0.938,0.600,1.183,0.828,0.377,0.668,0.633,�k�k��,5.1,��
2021/01/09,08:50,0.661,0.938,0.601,1.182,0.828,0.376,0.667,0.633,�k�k��,4.8,��
2021/01/09,09:00,0.661,0.938,0.602,1.183,0.829,0.376,0.667,0.632,�k�k��,3.7,��
2021/01/09,09:10,0.660,0.940,0.601,1.184,0.829,0.376,0.669,0.632,�k�k��,4.6,��
2021/01/09,09:20,0.660,0.939,0.602,1.183,0.830,0.375,0.670,0.632,�k�k��,3.6,��
2021/01/09,09:30,0.660,0.938,0.602,1.184,0.831,0.376,0.668,0.632,�k�k��,3.8,��
2021/01/09,09:40,0.660,0.936,0.601,1.182,0.831,0.375,0.668,0.635,�k�k��,4.0,��
2021/01/09,09:50,0.659,0.938,0.601,1.184,0.829,0.375,0.667,0.634,�k,3.5,��
2021/01/09,10:00,0.659,0.940,0.601,1.181,0.830,0.377,0.668,0.633,�k�k��,3.9,��
2021/01/09,10:10,0.660,0.939,0.601,1.183,0.831,0.375,0.670,0.634,�k,3.5,��
2021/01/09,10:20,0.661,0.937,0.601,1.183,0.832,0.375,0.669,0.633,�k�k��,3.2,��
2021/01/09,10:30,0.661,0.939,0.601,1.185,0.831,0.377,0.669,0.632,�k�k��,3.2,��
2021/01/09,10:40,0.661,0.941,0.602,1.183,0.830,0.376,0.670,0.631,�k�k��,4.1,��
2021/01/09,10:50,0.659,0.941,0.601,1.184,0.829,0.375,0.668,0.635,�k�k��,4.7,��
2021/01/09,11:00,0.659,0.942,0.602,1.183,0.830,0.376,0.669,0.633,�k�k��,5.2,��
2021/01/09,11:10,0.659,0.941,0.603,1.184,0.830,0.377,0.669,0.633,�k�k��,5.2,��
2021/01/09,11:20,0.659,0.939,0.603,1.183,0.830,0.375,0.669,0.632,�k,5.4,��
2021/01/09,11:30,0.659,0.941,0.602,1.182,0.833,0.376,0.669,0.632,�k,5.2,��
2021/01/09,11:40,0.660,0.940,0.601,1.183,0.830,0.376,0.669,0.634,�k,6.1,��
2021/01/09,11:50,0.661,0.942,0.603,1.183,0.832,0.376,0.669,0.633,�k�k��,5.6,��
2021/01/09,12:00,0.658,0.942,0.603,1.185,0.832,0.375,0.669,0.634,�k�k��,5.6,��
2021/01/09,12:10,0.658,0.945,0.600,1.183,0.834,0.375,0.672,0.633,�k�k��,5.6,��
2021/01/09,12:20,0.662,0.943,0.602,1.184,0.829,0.375,0.669,0.632,�k�k��,5.8,��
2021/01/09,12:30,0.661,0.942,0.603,1.185,0.833,0.376,0.670,0.632,�k�k��,5.4,��
2021/01/09,12:40,0.660,0.941,0.602,1.183,0.833,0.378,0.671,0.632,�k�k��,6.1,��
2021/01/09,12:50,0.662,0.944,0.604,1.184,0.833,0.376,0.669,0.633,�k�k��,6.1,��
2021/01/09,13:00,0.661,0.945,0.604,1.184,0.833,0.376,0.670,0.634,�k�k��,6.2,��
2021/01/09,13:10,0.662,0.943,0.604,1.184,0.833,0.376,0.670,0.633,�k�k��,5.7,��
2021/01/09,13:20,0.660,0.943,0.604,1.183,0.834,0.375,0.672,0.633,�k�k��,5.5,��
2021/01/09,13:30,0.660,0.943,0.602,1.184,0.831,0.376,0.670,0.634,�k�k��,6.1,��
2021/01/09,13:40,0.661,0.944,0.605,1.187,0.835,0.375,0.670,0.633,�k�k��,5.5,��
2021/01/09,13:50,0.661,0.944,0.604,1.184,0.833,0.375,0.670,0.633,�k�k��,5.0,��
2021/01/09,14:00,0.662,0.945,0.605,1.184,0.834,0.376,0.669,0.632,�k�k��,5.5,��
2021/01/09,14:10,0.661,0.943,0.606,1.184,0.831,0.376,0.669,0.634,�k�k��,5.4,��
2021/01/09,14:20,0.660,0.941,0.605,1.186,0.833,0.376,0.670,0.633,�k,6.0,��
2021/01/09,14:30,0.659,0.945,0.604,1.185,0.833,0.376,0.670,0.633,�k,4.4,��
2021/01/09,14:40,0.660,0.943,0.603,1.185,0.832,0.375,0.671,0.633,�k�k��,4.3,��
2021/01/09,14:50,0.663,0.943,0.606,1.184,0.834,0.377,0.671,0.632,�k�k��,4.4,��
2021/01/09,15:00,0.661,0.943,0.604,1.185,0.833,0.376,0.670,0.634,�k,5.6,��
2021/01/09,15:10,0.663,0.946,0.606,1.187,0.835,0.377,0.671,0.633,�k,4.5,��
2021/01/09,15:20,0.663,0.945,0.608,1.186,0.834,0.377,0.670,0.633,�k,4.5,��
2021/01/09,15:30,0.665,0.948,0.609,1.186,0.835,0.376,0.670,0.634,�k,3.4,�L
2021/01/09,15:40,0.664,0.947,0.608,1.186,0.833,0.376,0.670,0.634,�k,3.5,�L
2021/01/09,15:50,0.663,0.946,0.607,1.187,0.834,0.377,0.670,0.634,�k,3.0,��
2021/01/09,16:00,0.663,0.945,0.607,1.188,0.834,0.378,0.670,0.632,�k�k��,2.6,��
2021/01/09,16:10,0.663,0.946,0.608,1.187,0.834,0.376,0.668,0.633,���k��,1.4,��
2021/01/09,16:20,0.662,0.946,0.605,1.186,0.835,0.378,0.669,0.633,���k��,0.9,��
2021/01/09,16:30,0.662,0.946,0.607,1.183,0.834,0.377,0.671,0.631,�k��,1.1,��
2021/01/09,16:40,0.660,0.945,0.606,1.184,0.833,0.377,0.670,0.633,�k��,0.9,��
2021/01/09,16:50,0.659,0.944,0.604,1.184,0.835,0.375,0.670,0.631,��,1.5,��
2021/01/09,17:00,0.660,0.946,0.605,1.184,0.834,0.378,0.669,0.633,���k��,0.9,��
2021/01/09,17:10,0.661,0.944,0.604,1.185,0.832,0.375,0.669,0.633,-,CALM,��
2021/01/09,17:20,0.660,0.943,0.605,1.185,0.834,0.377,0.668,0.633,�k��,0.6,��
2021/01/09,17:30,0.662,0.943,0.604,1.183,0.833,0.376,0.670,0.632,�k��,0.9,��
2021/01/09,17:40,0.660,0.943,0.603,1.186,0.834,0.376,0.668,0.631,�k��,1.5,��
2021/01/09,17:50,0.660,0.943,0.603,1.183,0.835,0.376,0.668,0.633,�k�k��,1.5,��
2021/01/09,18:00,0.658,0.943,0.604,1.182,0.836,0.375,0.668,0.631,�k��,2.0,��
2021/01/09,18:10,0.658,0.943,0.604,1.186,0.833,0.376,0.667,0.632,���k��,1.4,��
2021/01/09,18:20,0.659,0.942,0.604,1.185,0.833,0.376,0.669,0.633,���k��,2.2,��
2021/01/09,18:30,0.661,0.944,0.605,1.186,0.834,0.376,0.667,0.633,���k��,1.9,��
2021/01/09,18:40,0.661,0.943,0.604,1.183,0.831,0.375,0.667,0.634,���k��,2.3,��
2021/01/09,18:50,0.659,0.942,0.604,1.182,0.832,0.375,0.669,0.632,�k��,2.6,��
2021/01/09,19:00,0.660,0.942,0.603,1.184,0.832,0.375,0.669,0.633,�k��,2.9,��
2021/01/09,19:10,0.657,0.939,0.602,1.184,0.833,0.374,0.669,0.633,�k��,2.9,��
2021/01/09,19:20,0.658,0.943,0.602,1.185,0.832,0.375,0.670,0.632,�k��,3.6,��
2021/01/09,19:30,0.656,0.945,0.602,1.183,0.831,0.375,0.669,0.633,�k��,4.0,��
2021/01/09,19:40,0.658,0.942,0.603,1.185,0.832,0.376,0.668,0.632,���k��,4.3,��
2021/01/09,19:50,0.658,0.941,0.603,1.184,0.831,0.375,0.669,0.631,���k��,3.8,��
2021/01/09,20:00,0.660,0.943,0.603,1.184,0.832,0.375,0.668,0.633,���k��,4.0,��
2021/01/09,20:10,0.659,0.940,0.604,1.184,0.833,0.377,0.670,0.633,�k��,4.7,��
2021/01/09,20:20,0.659,0.942,0.604,1.184,0.831,0.375,0.669,0.632,�k��,5.4,��
2021/01/09,20:30,0.659,0.941,0.603,1.183,0.833,0.376,0.669,0.633,�k��,6.0,��
2021/01/09,20:40,0.658,0.942,0.604,1.185,0.829,0.375,0.670,0.632,���k��,4.7,��
2021/01/09,20:50,0.660,0.942,0.601,1.184,0.833,0.376,0.669,0.634,���k��,4.8,��
2021/01/09,21:00,0.659,0.943,0.601,1.186,0.831,0.375,0.669,0.632,���k��,4.9,��
2021/01/09,21:10,0.657,0.943,0.600,1.182,0.832,0.375,0.670,0.633,�k��,4.7,��
2021/01/09,21:20,0.658,0.942,0.603,1.182,0.832,0.375,0.667,0.633,�k��,5.2,��
2021/01/09,21:30,0.657,0.942,0.603,1.185,0.833,0.375,0.670,0.631,�k��,4.4,��
2021/01/09,21:40,0.658,0.942,0.603,1.183,0.829,0.376,0.670,0.632,�k��,5.2,��
2021/01/09,21:50,0.658,0.942,0.603,1.184,0.830,0.375,0.669,0.633,�k��,4.5,��
2021/01/09,22:00,0.658,0.940,0.605,1.185,0.833,0.376,0.669,0.631,���k��,4.4,��
2021/01/09,22:10,0.658,0.943,0.602,1.185,0.831,0.375,0.668,0.631,�k��,5.1,��
2021/01/09,22:20,0.659,0.942,0.603,1.184,0.831,0.376,0.668,0.633,�k��,4.5,��
2021/01/09,22:30,0.657,0.941,0.603,1.186,0.830,0.376,0.668,0.633,�k��,5.3,��
2021/01/09,22:40,0.659,0.939,0.603,1.185,0.829,0.374,0.668,0.633,�k��,6.6,��
2021/01/09,22:50,0.659,0.942,0.603,1.184,0.831,0.375,0.670,0.632,�k��,7.0,��
2021/01/09,23:00,0.660,0.941,0.603,1.183,0.830,0.375,0.669,0.634,�k��,6.0,��
2021/01/09,23:10,0.659,0.941,0.603,1.185,0.830,0.375,0.668,0.633,�k��,6.3,��
2021/01/09,23:20,0.660,0.941,0.603,1.183,0.830,0.376,0.668,0.632,�k��,6.4,��
2021/01/09,23:30,0.659,0.940,0.603,1.187,0.829,0.375,0.669,0.632,�k��,6.2,��
2021/01/09,23:40,0.659,0.940,0.602,1.183,0.828,0.376,0.670,0.632,�k��,6.1,��
2021/01/09,23:50,0.658,0.943,0.602,1.183,0.829,0.375,0.669,0.632,�k��,6.1,��
